Location: Newark
(54.6833°N, 25.2833°E)
Time: 00:59:40
(UTC+00:00)

Altair - Pass Details

Date: 14 November 2019
Orbit: 1502 x 1682 km, 47.2° (Epoch: 14 December)

Event Time Altitude Azimuth Distance (km) Brightness Sun altitude
Rises 04:06:23 0° 240° (WSW) 4,630 - -14.3°
Exits shadow 04:07:38 - 239° (WSW) 4,229 9.4 -14.1°
Reaches altitude 10° 04:09:29 10° 236° (SW) 3,653 9.1 -13.8°
Maximum altitude 04:18:11 50° 164° (SSE) 1,870 8.2 -12.6°
Drops below altitude 10° 04:27:05 10° 94° (E) 3,740 11.0 -11.4°
Sets 04:30:18 0° 89° (E) 4,748 11.7 -10.9°
